Hourly Weather Kleczana

Today, 25 July, Sunday

Time Temperature Precipitation Wind Pressure Humidity
00:00 +19°C° 0 mm 2 mps 737 mmHg 69%
01:00 +19°C° 0 mm 2 mps 737 mmHg 67%
02:00 +19°C° 0 mm 2 mps 737 mmHg 67%
03:00 +18°C° 0 mm 2 mps 737 mmHg 67%
04:00 +18°C° 0 mm 2 mps 737 mmHg 67%
05:00 +19°C° 0 mm 2 mps 737 mmHg 65%
06:00 +22°C° 0 mm 1 mps 737 mmHg 62%
07:00 +24°C° 0 mm 1 mps 737 mmHg 60%
08:00 +25°C° 0 mm 2 mps 737 mmHg 55%
09:00 +27°C° 0 mm 2 mps 737 mmHg 49%
10:00 +29°C° 0 mm 2 mps 737 mmHg 44%
11:00 +27°C° 0.1 mm 2 mps 737 mmHg 52%
12:00 +26°C° 0.1 mm 3 mps 737 mmHg 60%
13:00 +24°C° 0.1 mm 3 mps 737 mmHg 68%
14:00 +24°C° 0 mm 2 mps 737 mmHg 69%
15:00 +23°C° 0 mm 2 mps 737 mmHg 70%
16:00 +23°C° 0 mm 1 mps 737 mmHg 70%
17:00 +22°C° 0 mm 1 mps 737 mmHg 73%
18:00 +21°C° 0 mm 2 mps 736 mmHg 75%
19:00 +20°C° 0 mm 2 mps 736 mmHg 78%
20:00 +20°C° 0.1 mm 2 mps 736 mmHg 80%
21:00 +19°C° 0.1 mm 2 mps 736 mmHg 81%
22:00 +18°C° 0.1 mm 2 mps 736 mmHg 83%
23:00 +19°C° 0 mm 2 mps 736 mmHg 83%

Tomorrow, 26 July, Monday

Time Temperature Precipitation Wind Pressure Humidity
00:00 +19°C° 0 mm 2 mps 736 mmHg 82%
01:00 +20°C° 0 mm 1 mps 735 mmHg 81%
02:00 +20°C° 0 mm 1 mps 735 mmHg 83%
03:00 +20°C° 0 mm 1 mps 735 mmHg 84%
04:00 +20°C° 0 mm 1 mps 735 mmHg 85%
05:00 +21°C° 0.1 mm 1 mps 735 mmHg 83%
06:00 +22°C° 0.1 mm 1 mps 735 mmHg 82%
07:00 +23°C° 0.1 mm 1 mps 736 mmHg 80%
08:00 +24°C° 0 mm 1 mps 736 mmHg 72%
09:00 +26°C° 0 mm 1 mps 736 mmHg 65%
10:00 +28°C° 0 mm 1 mps 736 mmHg 57%
11:00 +29°C° 0.5 mm 2 mps 736 mmHg 58%
12:00 +29°C° 0.5 mm 2 mps 736 mmHg 59%
13:00 +29°C° 0.5 mm 2 mps 736 mmHg 60%
14:00 +29°C° 0.5 mm 2 mps 736 mmHg 63%
15:00 +28°C° 0.5 mm 2 mps 736 mmHg 66%
16:00 +28°C° 0.5 mm 2 mps 736 mmHg 68%
17:00 +27°C° 0.1 mm 2 mps 736 mmHg 73%
18:00 +25°C° 0.1 mm 1 mps 736 mmHg 78%
19:00 +24°C° 0.1 mm 1 mps 736 mmHg 83%
20:00 +23°C° 0 mm 1 mps 736 mmHg 84%
21:00 +22°C° 0 mm 1 mps 736 mmHg 86%
22:00 +22°C° 0 mm 1 mps 736 mmHg 88%
23:00 +21°C° 0.1 mm 1 mps 736 mmHg 89%

Day after tomorrow, 27 July, Tuesday

Time Temperature Precipitation Wind Pressure Humidity
00:00 +21°C° 0.1 mm 1 mps 736 mmHg 89%
01:00 +20°C° 0.1 mm 1 mps 736 mmHg 90%
02:00 +20°C° 0.1 mm 1 mps 736 mmHg 90%
03:00 +20°C° 0.1 mm 1 mps 736 mmHg 90%
04:00 +20°C° 0.1 mm 1 mps 735 mmHg 90%
05:00 +21°C° 0 mm 1 mps 736 mmHg 88%
06:00 +21°C° 0 mm 2 mps 736 mmHg 85%
07:00 +22°C° 0 mm 3 mps 737 mmHg 82%
08:00 +24°C° 0.1 mm 3 mps 737 mmHg 79%
09:00 +25°C° 0.1 mm 3 mps 737 mmHg 76%
10:00 +26°C° 0.1 mm 3 mps 738 mmHg 73%
11:00 +26°C° 0.3 mm 3 mps 738 mmHg 72%
12:00 +26°C° 0.3 mm 3 mps 738 mmHg 71%
13:00 +26°C° 0.3 mm 3 mps 738 mmHg 71%
14:00 +27°C° 0.1 mm 3 mps 738 mmHg 69%
15:00 +27°C° 0.1 mm 3 mps 738 mmHg 68%
16:00 +27°C° 0.1 mm 3 mps 738 mmHg 66%
17:00 +26°C° 0.3 mm 2 mps 738 mmHg 72%
18:00 +25°C° 0.3 mm 2 mps 738 mmHg 77%
19:00 +23°C° 0.3 mm 1 mps 738 mmHg 83%
20:00 +23°C° 0 mm 1 mps 738 mmHg 85%
21:00 +22°C° 0 mm 1 mps 739 mmHg 87%
22:00 +21°C° 0 mm 1 mps 739 mmHg 89%
23:00 +21°C° 0 mm 1 mps 739 mmHg 90%

28 July, Wednesday

Time Temperature Precipitation Wind Pressure Humidity
00:00 +20°C° 0 mm 1 mps 739 mmHg 90%
01:00 +20°C° 0 mm 1 mps 739 mmHg 91%
02:00 +20°C° 0 mm 1 mps 739 mmHg 91%
03:00 +20°C° 0 mm 1 mps 738 mmHg 91%
04:00 +19°C° 0 mm 1 mps 738 mmHg 92%
05:00 +21°C° 0 mm 1 mps 738 mmHg 87%
06:00 +22°C° 0 mm 1 mps 738 mmHg 81%
07:00 +24°C° 0 mm 1 mps 738 mmHg 76%
08:00 +26°C° 0 mm 1 mps 738 mmHg 68%
09:00 +28°C° 0 mm 1 mps 738 mmHg 60%
10:00 +29°C° 0 mm 1 mps 738 mmHg 51%
11:00 +30°C° 0 mm 1 mps 737 mmHg 49%
12:00 +31°C° 0 mm 2 mps 737 mmHg 47%
13:00 +32°C° 0 mm 2 mps 737 mmHg 45%
14:00 +31°C° 0.4 mm 2 mps 736 mmHg 54%
15:00 +29°C° 0.4 mm 2 mps 736 mmHg 62%
16:00 +28°C° 0.4 mm 2 mps 736 mmHg 71%
17:00 +27°C° 0 mm 2 mps 736 mmHg 75%
18:00 +26°C° 0 mm 1 mps 736 mmHg 79%
19:00 +25°C° 0 mm 1 mps 736 mmHg 83%
20:00 +24°C° 0.7 mm 1 mps 736 mmHg 87%
21:00 +21°C° 0.7 mm 2 mps 737 mmHg 90%
22:00 +20°C° 0.7 mm 2 mps 737 mmHg 94%
23:00 +20°C° 0.1 mm 2 mps 737 mmHg 95%

29 July, Thursday

Time Temperature Precipitation Wind Pressure Humidity
00:00 +19°C° 0.1 mm 2 mps 737 mmHg 95%
01:00 +19°C° 0.1 mm 2 mps 737 mmHg 96%
02:00 +18°C° 0 mm 2 mps 737 mmHg 96%
03:00 +18°C° 0 mm 2 mps 738 mmHg 97%
04:00 +18°C° 0 mm 2 mps 738 mmHg 97%
05:00 +19°C° 0 mm 2 mps 738 mmHg 94%
06:00 +20°C° 0 mm 1 mps 738 mmHg 91%
07:00 +21°C° 0 mm 1 mps 739 mmHg 87%
08:00 +23°C° 0 mm 1 mps 739 mmHg 80%
09:00 +25°C° 0 mm 1 mps 739 mmHg 72%
10:00 +27°C° 0 mm 1 mps 739 mmHg 64%
11:00 +28°C° 0 mm 1 mps 739 mmHg 59%
12:00 +29°C° 0 mm 1 mps 738 mmHg 54%
13:00 +30°C° 0 mm 1 mps 738 mmHg 48%
14:00 +31°C° 0 mm 1 mps 738 mmHg 49%
15:00 +31°C° 0 mm 1 mps 738 mmHg 49%
16:00 +31°C° 0 mm 1 mps 738 mmHg 49%
17:00 +29°C° 0 mm 1 mps 737 mmHg 57%
18:00 +27°C° 0 mm 1 mps 737 mmHg 66%
19:00 +25°C° 0 mm 2 mps 737 mmHg 74%
20:00 +24°C° 0 mm 2 mps 737 mmHg 76%
21:00 +24°C° 0 mm 2 mps 737 mmHg 79%
22:00 +23°C° 0 mm 2 mps 737 mmHg 81%
23:00 +21°C° 0.1 mm 2 mps 737 mmHg 83%

30 July, Friday

Time Temperature Precipitation Wind Pressure Humidity
00:00 +21°C° 0.1 mm 2 mps 736 mmHg 85%
01:00 +22°C° 0.1 mm 1 mps 736 mmHg 87%
02:00 +21°C° 0.3 mm 1 mps 736 mmHg 88%
03:00 +21°C° 0.3 mm 1 mps 736 mmHg 89%
04:00 +19°C° 0.3 mm 0 mps 736 mmHg 90%
05:00 +22°C° 0 mm 1 mps 737 mmHg 87%
06:00 +23°C° 0 mm 1 mps 737 mmHg 83%
07:00 +24°C° 0 mm 1 mps 737 mmHg 80%
08:00 +26°C° 0 mm 2 mps 737 mmHg 74%
09:00 +27°C° 0 mm 2 mps 737 mmHg 69%
10:00 +28°C° 0 mm 2 mps 737 mmHg 63%
11:00 +29°C° 0 mm 2 mps 737 mmHg 60%
12:00 +30°C° 0 mm 2 mps 736 mmHg 57%
13:00 +31°C° 0 mm 2 mps 736 mmHg 55%
14:00 +29°C° 2.2 mm 3 mps 736 mmHg 63%
15:00 +27°C° 2.2 mm 3 mps 735 mmHg 72%
16:00 +23°C° 2.2 mm 4 mps 735 mmHg 80%
17:00 +22°C° 6.7 mm 3 mps 735 mmHg 86%
18:00 +21°C° 6.7 mm 3 mps 735 mmHg 91%
19:00 +19°C° 6.7 mm 2 mps 736 mmHg 97%
20:00 +19°C° 0.2 mm 2 mps 736 mmHg 96%
21:00 +20°C° 0.2 mm 1 mps 736 mmHg 95%
22:00 +20°C° 0.2 mm 1 mps 736 mmHg 94%
23:00 +20°C° 0.1 mm 1 mps 736 mmHg 94%
Show more